Location: Waco, TX
(31.5480°N, 97.1670°W)
Time: 05:24:29
(UTC-05:00)

ISS - Pass Details

Date: 25 September 2022
Orbit: 414 x 417 km, 51.6° (Epoch: 01 October)

Event Time Altitude Azimuth Distance (km) Brightness Sun altitude
Rises 22:57:11 0° 332° (NNW) 2,360 - -44.6°
Reaches altitude 10° 22:59:58 10° 357° (N) 1,494 - -45.1°
Maximum altitude 23:02:00 15° 34° (NE) 1,225 - -45.5°
Drops below altitude 10° 23:04:01 10° 71° (ENE) 1,490 - -45.8°
Sets 23:06:47 0° 96° (E) 2,350 - -46.3°
